Date,TemperatureHighF,TemperatureAvgF,TemperatureLowF,DewpointHighF,DewpointAvgF,DewpointLowF,HumidityHigh,HumidityAvg,HumidityLow,PressureMaxIn,PressureMinIn,WindSpeedMaxMPH,WindSpeedAvgMPH,GustSpeedMaxMPH,PrecipitationSumIn
2013-5-1,56,46,35,45,39,31,89,76,58,30.61,30.44,10,3,11,0.02
2013-5-2,65,52,39,47,40,35,88,66,39,30.56,30.41,3,2,9,0.00
2013-5-3,74,56,43,50,45,39,89,69,37,30.42,30.25,4,2,10,0.00
2013-5-4,72,60,49,50,44,37,82,59,30,30.27,30.02,4,2,11,0.00
2013-5-5,77,60,48,48,43,36,79,57,24,30.02,29.80,4,2,9,0.00
2013-5-6,70,56,46,47,44,41,83,66,36,29.89,29.77,6,2,9,0.00
2013-5-7,62,52,45,49,45,41,87,77,57,30.00,29.81,14,4,19,0.00
2013-5-8,58,51,47,48,45,43,88,82,68,30.14,29.96,12,5,17,0.00
2013-5-9,60,51,44,48,45,41,92,81,65,30.22,30.11,10,3,14,0.00
2013-5-10,62,50,44,49,43,-100,91,81,56,30.21,30.11,8,2,12,0.00
2013-5-11,58,52,48,50,45,-100,90,81,66,30.16,30.01,8,2,12,0.04
2013-5-12,60,55,50,57,52,47,93,90,84,30.06,29.98,6,1,13,0.34
2013-5-13,57,51,47,53,47,42,93,87,75,30.18,29.91,20,5,28,0.17
2013-5-14,57,50,46,45,42,38,89,76,56,30.22,30.12,11,6,15,0.01
2013-5-15,58,51,46,49,45,43,91,82,63,30.12,30.01,7,2,9,0.04
2013-5-16,60,49,48,53,32,-100,93,88,74,30.02,29.89,4,1,6,0.09
2013-5-17,56,50,47,51,44,-100,93,88,78,30.04,29.92,9,2,13,0.06
2013-5-18,54,51,48,50,47,46,92,88,76,30.27,30.04,9,2,11,0.07
2013-5-19,58,52,48,50,46,43,90,80,64,30.41,30.27,10,3,12,0.01
2013-5-20,58,50,42,47,44,40,92,81,64,30.35,29.93,12,3,15,0.01
2013-5-21,51,47,45,45,43,41,91,85,70,29.95,29.79,11,4,15,0.21
2013-5-22,56,48,43,47,43,40,92,82,67,29.95,29.84,10,4,13,0.18
2013-5-23,61,51,43,48,42,39,93,75,49,29.98,29.92,11,2,19,0.19
2013-5-24,56,50,42,48,43,38,89,77,60,30.02,29.97,14,5,18,0.01
2013-5-25,54,51,48,46,44,42,86,78,64,30.03,29.99,11,3,15,0.01
2013-5-26,52,50,48,50,47,45,93,91,87,30.00,29.93,1,0,3,0.24
2013-5-27,60,54,48,56,51,46,93,88,79,29.93,29.67,6,2,14,0.14
2013-5-28,60,56,52,55,52,49,91,87,80,29.85,29.73,4,1,10,0.04
2013-5-29,57,53,51,53,50,46,93,89,79,29.95,29.69,10,3,12,0.06
2013-5-30,61,54,49,51,48,45,88,80,65,30.23,29.95,9,3,14,0.01
2013-5-31,59,54,49,51,48,44,92,81,63,30.35,30.23,11,4,13,0.03